Year,Month,Day,Hour,Minute,Value (Times are PST for temperature in C)
2016,12,08,00,00,1.00
2016,12,08,00,02,0.90
2016,12,08,00,03,0.90
2016,12,08,00,04,0.90
2016,12,08,00,06,0.80
2016,12,08,00,07,0.80
2016,12,08,00,09,0.80
2016,12,08,00,10,0.80
2016,12,08,00,12,0.80
2016,12,08,00,13,0.80
2016,12,08,00,14,0.80
2016,12,08,00,16,0.80
2016,12,08,00,17,0.80
2016,12,08,00,18,0.80
2016,12,08,00,19,0.80
2016,12,08,00,21,0.80
2016,12,08,00,22,0.80
2016,12,08,00,23,0.80
2016,12,08,00,24,0.80
2016,12,08,00,26,0.80
2016,12,08,00,27,0.80
2016,12,08,00,28,0.80
2016,12,08,00,29,0.80
2016,12,08,00,31,0.80
2016,12,08,00,32,0.80
2016,12,08,00,33,0.80
2016,12,08,00,34,0.80
2016,12,08,00,36,1.00
2016,12,08,00,37,1.00
2016,12,08,00,38,1.00
2016,12,08,00,39,1.10
2016,12,08,00,41,1.10
2016,12,08,00,42,1.00
2016,12,08,00,43,1.00
2016,12,08,00,44,1.00
2016,12,08,00,46,1.00
2016,12,08,00,47,1.00
2016,12,08,00,48,1.00
2016,12,08,00,49,0.90
2016,12,08,00,51,0.90
2016,12,08,00,52,0.80
2016,12,08,00,53,0.80
2016,12,08,00,54,0.90
2016,12,08,00,56,1.00
2016,12,08,00,57,1.00
2016,12,08,00,58,1.10
2016,12,08,00,59,1.20
2016,12,08,01,01,1.30
2016,12,08,01,02,1.30
2016,12,08,01,03,1.30
2016,12,08,01,04,1.30
2016,12,08,01,06,1.30
2016,12,08,01,07,1.30
2016,12,08,01,08,1.30
2016,12,08,01,09,1.30
2016,12,08,01,11,1.30
2016,12,08,01,12,1.30
2016,12,08,01,13,1.40
2016,12,08,01,14,1.40
2016,12,08,01,16,1.40
2016,12,08,01,17,1.40
2016,12,08,01,18,1.50
2016,12,08,01,19,1.50
2016,12,08,01,21,1.50
2016,12,08,01,22,1.50
2016,12,08,01,23,1.50
2016,12,08,01,24,1.50
2016,12,08,01,25,1.50
2016,12,08,01,26,1.60
2016,12,08,01,27,1.60
2016,12,08,01,28,1.60
2016,12,08,01,29,1.60
2016,12,08,01,30,1.50
2016,12,08,01,31,1.50
2016,12,08,01,32,1.50
2016,12,08,01,33,1.50
2016,12,08,01,34,1.50
2016,12,08,01,36,1.60
2016,12,08,01,37,1.60
2016,12,08,01,38,1.60
2016,12,08,01,39,1.60
2016,12,08,01,40,1.60
2016,12,08,01,41,1.60
2016,12,08,01,42,1.60
2016,12,08,01,43,1.60
2016,12,08,01,44,1.60
2016,12,08,01,45,1.60
2016,12,08,01,46,1.50
2016,12,08,01,47,1.50
2016,12,08,01,48,1.50
2016,12,08,01,49,1.50
2016,12,08,01,50,1.50
2016,12,08,01,51,1.50
2016,12,08,01,52,1.50
2016,12,08,01,53,1.50
2016,12,08,01,54,1.40
2016,12,08,01,55,1.40
2016,12,08,01,56,1.40
2016,12,08,01,57,1.40
2016,12,08,01,58,1.40
2016,12,08,01,59,1.40
2016,12,08,02,00,1.40
2016,12,08,02,01,1.40
2016,12,08,02,02,1.40
2016,12,08,02,03,1.40
2016,12,08,02,04,1.40
2016,12,08,02,05,1.30
2016,12,08,02,06,1.30
2016,12,08,02,07,1.30
2016,12,08,02,08,1.30
2016,12,08,02,09,1.30
2016,12,08,02,10,1.30
2016,12,08,02,11,1.20
2016,12,08,02,12,1.20
2016,12,08,02,13,1.20
2016,12,08,02,14,1.20
2016,12,08,02,15,1.10
2016,12,08,02,16,1.10
2016,12,08,02,17,1.10
2016,12,08,02,18,1.00
2016,12,08,02,19,1.00
2016,12,08,02,20,1.00
2016,12,08,02,21,0.90
2016,12,08,02,22,0.90
2016,12,08,02,23,0.90
2016,12,08,02,24,0.90
2016,12,08,02,25,0.80
2016,12,08,02,26,0.80
2016,12,08,02,27,0.80
2016,12,08,02,28,0.80
2016,12,08,02,29,0.80
2016,12,08,02,30,0.80
2016,12,08,02,31,0.80
2016,12,08,02,32,0.80
2016,12,08,02,33,0.80
2016,12,08,02,34,0.80
2016,12,08,02,35,0.80
2016,12,08,02,36,0.80
2016,12,08,02,37,0.80
2016,12,08,02,39,0.80
2016,12,08,02,41,0.80
2016,12,08,02,42,0.80
2016,12,08,02,43,0.80
2016,12,08,02,44,0.80
2016,12,08,02,46,0.80
2016,12,08,02,47,0.80
2016,12,08,02,48,0.90
2016,12,08,02,49,0.80
2016,12,08,02,51,0.90
2016,12,08,02,52,0.90
2016,12,08,02,53,0.90
2016,12,08,02,54,1.00
2016,12,08,02,56,1.10
2016,12,08,02,57,1.10
2016,12,08,02,58,1.20
2016,12,08,02,59,1.20
2016,12,08,03,01,1.20
2016,12,08,03,02,1.30
2016,12,08,03,03,1.30
2016,12,08,03,04,1.30
2016,12,08,03,06,1.30
2016,12,08,03,07,1.30
2016,12,08,03,08,1.30
2016,12,08,03,09,1.30
2016,12,08,03,11,1.30
2016,12,08,03,12,1.30
2016,12,08,03,13,1.30
2016,12,08,03,14,1.30
2016,12,08,03,16,1.30
2016,12,08,03,17,1.30
2016,12,08,03,18,1.30
2016,12,08,03,19,1.30
2016,12,08,03,21,1.30
2016,12,08,03,22,1.30
2016,12,08,03,23,1.30
2016,12,08,03,24,1.30
2016,12,08,03,26,1.30
2016,12,08,03,27,1.30
2016,12,08,03,28,1.30
2016,12,08,03,29,1.30
2016,12,08,03,31,1.30
2016,12,08,03,32,1.30
2016,12,08,03,33,1.30
2016,12,08,03,34,1.30
2016,12,08,03,36,1.30
2016,12,08,03,37,1.30
2016,12,08,03,38,1.30
2016,12,08,03,39,1.30
2016,12,08,03,41,1.30
2016,12,08,03,42,1.30
2016,12,08,03,43,1.30
2016,12,08,03,44,1.30
2016,12,08,03,46,1.40
2016,12,08,03,47,1.40
2016,12,08,03,48,1.40
2016,12,08,03,49,1.50
2016,12,08,03,51,1.50
2016,12,08,03,52,1.40
2016,12,08,03,53,1.40
2016,12,08,03,54,1.40
2016,12,08,03,55,1.40
2016,12,08,03,56,1.40
2016,12,08,03,57,1.40
2016,12,08,03,58,1.40
2016,12,08,03,59,1.30
2016,12,08,04,00,1.30
2016,12,08,04,01,1.30
2016,12,08,04,02,1.30
2016,12,08,04,03,1.30
2016,12,08,04,04,1.30
2016,12,08,04,06,1.30
2016,12,08,04,07,1.30
2016,12,08,04,08,1.30
2016,12,08,04,09,1.30
2016,12,08,04,10,1.30
2016,12,08,04,11,1.30
2016,12,08,04,12,1.30
2016,12,08,04,13,1.30
2016,12,08,04,14,1.30
2016,12,08,04,15,1.30
2016,12,08,04,16,1.40
2016,12,08,04,17,1.40
2016,12,08,04,18,1.40
2016,12,08,04,19,1.40
2016,12,08,04,20,1.50
2016,12,08,04,21,1.50
2016,12,08,04,22,1.50
2016,12,08,04,23,1.50
2016,12,08,04,24,1.40
2016,12,08,04,25,1.40
2016,12,08,04,26,1.40
2016,12,08,04,27,1.40
2016,12,08,04,28,1.40
2016,12,08,04,29,1.50
2016,12,08,04,30,1.50
2016,12,08,04,31,1.50
2016,12,08,04,32,1.50
2016,12,08,04,33,1.50
2016,12,08,04,34,1.50
2016,12,08,04,35,1.50
2016,12,08,04,36,1.50
2016,12,08,04,37,1.50
2016,12,08,04,38,1.40
2016,12,08,04,39,1.40
2016,12,08,04,40,1.40
2016,12,08,04,41,1.40
2016,12,08,04,42,1.40
2016,12,08,04,43,1.40
2016,12,08,04,44,1.40
2016,12,08,04,45,1.40
2016,12,08,04,46,1.40
2016,12,08,04,47,1.40
2016,12,08,04,48,1.40
2016,12,08,04,49,1.40
2016,12,08,04,50,1.40
2016,12,08,04,51,1.40
2016,12,08,04,52,1.40
2016,12,08,04,53,1.30
2016,12,08,04,54,1.30
2016,12,08,04,55,1.30
2016,12,08,04,56,1.30
2016,12,08,04,57,1.30
2016,12,08,04,58,1.40
2016,12,08,04,59,1.40
2016,12,08,05,00,1.30
2016,12,08,05,01,1.30
2016,12,08,05,02,1.30
2016,12,08,05,03,1.30
2016,12,08,05,04,1.40
2016,12,08,05,05,1.40
2016,12,08,05,07,1.40
2016,12,08,05,08,1.40
2016,12,08,05,09,1.40
2016,12,08,05,11,1.40
2016,12,08,05,12,1.40
2016,12,08,05,13,1.40
2016,12,08,05,14,1.40
2016,12,08,05,16,1.40
2016,12,08,05,17,1.40
2016,12,08,05,18,1.40
2016,12,08,05,19,1.40
2016,12,08,05,21,1.50
2016,12,08,05,22,1.50
2016,12,08,05,23,1.40
2016,12,08,05,24,1.40
2016,12,08,05,26,1.40
2016,12,08,05,27,1.40
2016,12,08,05,28,1.40
2016,12,08,05,29,1.40
2016,12,08,05,31,1.40
2016,12,08,05,32,1.40
2016,12,08,05,33,1.40
2016,12,08,05,34,1.30
2016,12,08,05,36,1.30
2016,12,08,05,37,1.30
2016,12,08,05,38,1.30
2016,12,08,05,39,1.30
2016,12,08,05,41,1.30
2016,12,08,05,42,1.30
2016,12,08,05,43,1.30
2016,12,08,05,44,1.30
2016,12,08,05,46,1.30
2016,12,08,05,47,1.30
2016,12,08,05,48,1.30
2016,12,08,05,49,1.30
2016,12,08,05,51,1.30
2016,12,08,05,52,1.30
2016,12,08,05,53,1.30
2016,12,08,05,54,1.30
2016,12,08,05,56,1.30
2016,12,08,05,57,1.30
2016,12,08,05,58,1.30
2016,12,08,05,59,1.30
2016,12,08,06,01,1.30
2016,12,08,06,02,1.30
2016,12,08,06,03,1.30
2016,12,08,06,04,1.30
2016,12,08,06,06,1.20
2016,12,08,06,07,1.20
2016,12,08,06,08,1.30
2016,12,08,06,09,1.30
2016,12,08,06,11,1.30
2016,12,08,06,12,1.30
2016,12,08,06,13,1.30
2016,12,08,06,14,1.30
2016,12,08,06,16,1.30
2016,12,08,06,17,1.30
2016,12,08,06,18,1.20
2016,12,08,06,19,1.20
2016,12,08,06,21,1.10
2016,12,08,06,22,1.00
2016,12,08,06,23,1.00
2016,12,08,06,24,0.90
2016,12,08,06,25,0.90
2016,12,08,06,26,0.80
2016,12,08,06,27,0.80
2016,12,08,06,28,0.80
2016,12,08,06,29,0.80
2016,12,08,06,31,0.80
2016,12,08,06,32,0.80
2016,12,08,06,33,0.80
2016,12,08,06,34,0.80
2016,12,08,06,36,0.80
2016,12,08,06,37,0.80
2016,12,08,06,38,0.80
2016,12,08,06,39,0.80
2016,12,08,06,41,0.80
2016,12,08,06,42,0.80
2016,12,08,06,43,0.70
2016,12,08,06,44,0.70
2016,12,08,06,45,0.70
2016,12,08,06,46,0.70
2016,12,08,06,47,0.70
2016,12,08,06,48,0.70
2016,12,08,06,49,0.70
2016,12,08,06,50,0.70
2016,12,08,06,51,0.70
2016,12,08,06,52,0.60
2016,12,08,06,53,0.60
2016,12,08,06,54,0.60
2016,12,08,06,55,0.60
2016,12,08,06,56,0.70
2016,12,08,06,57,0.70
2016,12,08,06,58,0.60
2016,12,08,06,59,0.60
2016,12,08,07,00,0.60
2016,12,08,07,01,0.60
2016,12,08,07,02,0.60
2016,12,08,07,03,0.60
2016,12,08,07,04,0.60
2016,12,08,07,05,0.60
2016,12,08,07,06,0.60
2016,12,08,07,07,0.60
2016,12,08,07,08,0.60
2016,12,08,07,09,0.60
2016,12,08,07,10,0.60
2016,12,08,07,11,0.60
2016,12,08,07,12,0.50
2016,12,08,07,13,0.50
2016,12,08,07,14,0.50
2016,12,08,07,15,0.50
2016,12,08,07,16,0.50
2016,12,08,07,17,0.60
2016,12,08,07,18,0.60
2016,12,08,07,19,0.60
2016,12,08,07,20,0.60
2016,12,08,07,21,0.70
2016,12,08,07,22,0.70
2016,12,08,07,23,0.70
2016,12,08,07,24,0.70
2016,12,08,07,25,0.70
2016,12,08,07,26,0.60
2016,12,08,07,27,0.60
2016,12,08,07,28,0.60
2016,12,08,07,29,0.50
2016,12,08,07,30,0.50
2016,12,08,07,31,0.50
2016,12,08,07,32,0.60
2016,12,08,07,33,0.60
2016,12,08,07,34,0.60
2016,12,08,07,35,0.50
2016,12,08,07,36,0.50
2016,12,08,07,37,0.50
2016,12,08,07,38,0.50
2016,12,08,07,39,0.40
2016,12,08,07,40,0.40
2016,12,08,07,41,0.40
2016,12,08,07,42,0.40
2016,12,08,07,43,0.40
2016,12,08,07,44,0.40
2016,12,08,07,45,0.40
2016,12,08,07,46,0.40
2016,12,08,07,47,0.40
2016,12,08,07,48,0.40
2016,12,08,07,49,0.40
2016,12,08,07,50,0.40
2016,12,08,07,52,0.40
2016,12,08,07,53,0.40
2016,12,08,07,54,0.40
2016,12,08,07,56,0.40
2016,12,08,07,57,0.40
2016,12,08,07,58,0.40
2016,12,08,07,59,0.40
2016,12,08,08,01,0.30
2016,12,08,08,02,0.30
2016,12,08,08,03,0.30
2016,12,08,08,04,0.30
2016,12,08,08,06,0.30
2016,12,08,08,07,0.30
2016,12,08,08,08,0.30
2016,12,08,08,09,0.30
2016,12,08,08,11,0.30
2016,12,08,08,12,0.30
2016,12,08,08,13,0.40
2016,12,08,08,14,0.40
2016,12,08,08,16,0.40
2016,12,08,08,17,0.40
2016,12,08,08,18,0.40
2016,12,08,08,19,0.40
2016,12,08,08,21,0.40
2016,12,08,08,22,0.40
2016,12,08,08,23,0.40
2016,12,08,08,24,0.40
2016,12,08,08,26,0.50
2016,12,08,08,27,0.50
2016,12,08,08,28,0.50
2016,12,08,08,29,0.50
2016,12,08,08,31,0.50
2016,12,08,08,32,0.50
2016,12,08,08,33,0.40
2016,12,08,08,34,0.40
2016,12,08,08,36,0.40
2016,12,08,08,37,0.50
2016,12,08,08,38,0.50
2016,12,08,08,39,0.50
2016,12,08,08,41,0.50
2016,12,08,08,42,0.50
2016,12,08,08,43,0.50
2016,12,08,08,44,0.50
2016,12,08,08,46,0.50
2016,12,08,08,47,0.50
2016,12,08,08,48,0.50
2016,12,08,08,49,0.50
2016,12,08,08,51,0.50
2016,12,08,08,52,0.50
2016,12,08,08,53,0.50
2016,12,08,08,54,0.50
2016,12,08,08,56,0.50
2016,12,08,08,57,0.50
2016,12,08,08,58,0.50
2016,12,08,08,59,0.50
2016,12,08,09,01,0.50
2016,12,08,09,02,0.50
2016,12,08,09,03,0.60
2016,12,08,09,04,0.60
2016,12,08,09,06,0.60
2016,12,08,09,07,0.60
2016,12,08,09,08,0.60
2016,12,08,09,09,0.70
2016,12,08,09,11,0.70
2016,12,08,09,12,0.70
2016,12,08,09,13,0.70
2016,12,08,09,14,0.80
2016,12,08,09,15,0.80
2016,12,08,09,16,0.80
2016,12,08,09,17,0.80
2016,12,08,09,18,0.80
2016,12,08,09,19,0.80
2016,12,08,09,20,0.80
2016,12,08,09,21,0.80
2016,12,08,09,22,0.80
2016,12,08,09,23,0.80
2016,12,08,09,24,0.80
2016,12,08,09,25,0.80
2016,12,08,09,26,0.80
2016,12,08,09,27,0.80
2016,12,08,09,28,0.80
2016,12,08,09,29,0.80
2016,12,08,09,30,0.80
2016,12,08,09,31,0.80
2016,12,08,09,32,0.70
2016,12,08,09,33,0.70
2016,12,08,09,34,0.70
2016,12,08,09,36,0.80
2016,12,08,09,37,0.80
2016,12,08,09,38,0.80
2016,12,08,09,39,0.80
2016,12,08,09,40,0.80
2016,12,08,09,41,0.80
2016,12,08,09,42,0.80
2016,12,08,09,43,0.80
2016,12,08,09,44,0.90
2016,12,08,09,45,0.90
2016,12,08,09,46,1.00
2016,12,08,09,47,1.00
2016,12,08,09,48,1.10
2016,12,08,09,49,1.10
2016,12,08,09,50,1.10
2016,12,08,09,51,1.20
2016,12,08,09,52,1.20
2016,12,08,09,53,1.30
2016,12,08,09,54,1.30
2016,12,08,09,55,1.30
2016,12,08,09,56,1.30
2016,12,08,09,57,1.40
2016,12,08,09,58,1.40
2016,12,08,09,59,1.50
2016,12,08,10,00,1.50
2016,12,08,10,01,1.60
2016,12,08,10,02,1.60
2016,12,08,10,03,1.60
2016,12,08,10,04,1.60
2016,12,08,10,05,1.60
2016,12,08,10,06,1.60
2016,12,08,10,07,1.60
2016,12,08,10,08,1.60
2016,12,08,10,09,1.70
2016,12,08,10,10,1.60
2016,12,08,10,12,1.70
2016,12,08,10,13,1.70
2016,12,08,10,14,1.70
2016,12,08,10,16,1.70
2016,12,08,10,17,1.70
2016,12,08,10,18,1.60
2016,12,08,10,19,1.60
2016,12,08,10,21,1.50
2016,12,08,10,22,1.50
2016,12,08,10,23,1.50
2016,12,08,10,24,1.40
2016,12,08,10,26,1.40
2016,12,08,10,27,1.40
2016,12,08,10,28,1.40
2016,12,08,10,29,1.40
2016,12,08,10,31,1.30
2016,12,08,10,32,1.30
2016,12,08,10,33,1.30
2016,12,08,10,34,1.30
2016,12,08,10,36,1.30
2016,12,08,10,37,1.30
2016,12,08,10,38,1.30
2016,12,08,11,29,1.80
2016,12,08,11,30,1.70
2016,12,08,11,31,1.70
2016,12,08,11,32,1.70
2016,12,08,11,33,1.80
2016,12,08,11,34,1.80
2016,12,08,11,36,1.80
2016,12,08,11,37,1.80
2016,12,08,11,38,1.80
2016,12,08,11,39,1.80
2016,12,08,11,40,1.80
2016,12,08,11,41,1.80
2016,12,08,11,42,1.80
2016,12,08,11,43,1.80
2016,12,08,11,44,1.80
2016,12,08,11,45,1.80
2016,12,08,11,46,1.80
2016,12,08,11,47,1.80
2016,12,08,11,48,1.80
2016,12,08,11,49,1.90
2016,12,08,11,50,1.80
2016,12,08,11,51,1.80
2016,12,08,11,52,1.90
2016,12,08,11,53,1.90
2016,12,08,11,54,1.90
2016,12,08,11,55,1.90
2016,12,08,11,56,1.90
2016,12,08,11,57,1.90
2016,12,08,11,58,2.00
2016,12,08,11,59,2.00
2016,12,08,12,00,2.10
2016,12,08,12,01,2.10
2016,12,08,12,02,2.10
2016,12,08,12,03,2.20
2016,12,08,12,04,2.20
2016,12,08,12,05,2.20
2016,12,08,12,06,2.20
2016,12,08,12,07,2.20
2016,12,08,12,08,2.20
2016,12,08,12,09,2.20
2016,12,08,12,10,2.20
2016,12,08,12,11,2.20
2016,12,08,12,12,2.20
2016,12,08,12,13,2.20
2016,12,08,12,14,2.20
2016,12,08,12,15,2.20
2016,12,08,12,16,2.30
2016,12,08,12,17,2.30
2016,12,08,12,18,2.40
2016,12,08,12,19,2.40
2016,12,08,12,20,2.40
2016,12,08,12,21,2.40
2016,12,08,12,22,2.40
2016,12,08,12,23,2.40
2016,12,08,12,24,2.40
2016,12,08,12,25,2.40
2016,12,08,12,27,2.40
2016,12,08,12,28,2.40
2016,12,08,12,29,2.40
2016,12,08,12,31,2.40
2016,12,08,12,32,2.30
2016,12,08,12,33,2.30
2016,12,08,12,34,2.30
2016,12,08,12,36,2.30
2016,12,08,12,37,2.30
2016,12,08,12,38,2.30
2016,12,08,12,39,2.30
2016,12,08,12,41,2.40
2016,12,08,12,42,2.30
2016,12,08,12,43,2.30
2016,12,08,12,44,2.30
2016,12,08,12,46,2.40
2016,12,08,12,47,2.40
2016,12,08,12,48,2.40
2016,12,08,12,49,2.50
2016,12,08,12,51,2.50
2016,12,08,12,52,2.50
2016,12,08,12,53,2.50
2016,12,08,12,54,2.50
2016,12,08,12,56,2.50
2016,12,08,12,57,2.50
2016,12,08,12,58,2.50
2016,12,08,12,59,2.50
2016,12,08,13,01,2.50
2016,12,08,13,02,2.50
2016,12,08,13,03,2.50
2016,12,08,13,04,2.50
2016,12,08,13,06,2.50
2016,12,08,13,07,2.50
2016,12,08,13,08,2.50
2016,12,08,13,09,2.50
2016,12,08,13,11,2.50
2016,12,08,13,12,2.50
2016,12,08,13,13,2.50
2016,12,08,13,14,2.50
2016,12,08,13,16,2.50
2016,12,08,13,17,2.50
2016,12,08,13,18,2.50
2016,12,08,13,19,2.50
2016,12,08,13,21,2.50
2016,12,08,13,22,2.50
2016,12,08,13,23,2.50
2016,12,08,13,24,2.50
2016,12,08,13,26,2.50
2016,12,08,13,27,2.50
2016,12,08,13,28,2.60
2016,12,08,13,29,2.60
2016,12,08,13,31,2.60
2016,12,08,13,32,2.60
2016,12,08,13,33,2.60
2016,12,08,13,34,2.50
2016,12,08,13,36,2.50
2016,12,08,13,37,2.50
2016,12,08,13,38,2.50
2016,12,08,13,39,2.50
2016,12,08,13,41,2.50
2016,12,08,13,42,2.50
2016,12,08,13,43,2.50
2016,12,08,13,44,2.50
2016,12,08,13,45,2.50
2016,12,08,13,46,2.50
2016,12,08,13,47,2.50
2016,12,08,13,48,2.50
2016,12,08,13,49,2.50
2016,12,08,13,50,2.50
2016,12,08,13,51,2.50
2016,12,08,13,52,2.50
2016,12,08,13,53,2.50
2016,12,08,13,54,2.50
2016,12,08,13,55,2.50
2016,12,08,13,56,2.50
2016,12,08,13,57,2.50
2016,12,08,13,58,2.50
2016,12,08,13,59,2.50
2016,12,08,14,00,2.50
2016,12,08,14,01,2.50
2016,12,08,14,02,2.50
2016,12,08,14,03,2.50
2016,12,08,14,04,2.50
2016,12,08,14,05,2.40
2016,12,08,14,06,2.40
2016,12,08,14,07,2.40
2016,12,08,14,08,2.50
2016,12,08,14,09,2.50
2016,12,08,14,10,2.50
2016,12,08,14,11,2.50
2016,12,08,14,12,2.50
2016,12,08,14,13,2.50
2016,12,08,14,14,2.50
2016,12,08,14,15,2.40
2016,12,08,14,16,2.40
2016,12,08,14,17,2.40
2016,12,08,14,18,2.40
2016,12,08,14,19,2.40
2016,12,08,14,20,2.40
2016,12,08,14,21,2.40
2016,12,08,14,22,2.40
2016,12,08,14,23,2.40
2016,12,08,14,24,2.40
2016,12,08,14,25,2.40
2016,12,08,14,26,2.40
2016,12,08,14,27,2.40
2016,12,08,14,28,2.40
2016,12,08,14,29,2.30
2016,12,08,14,30,2.30
2016,12,08,14,31,2.30
2016,12,08,14,32,2.30
2016,12,08,14,33,2.30
2016,12,08,14,34,2.30
2016,12,08,14,35,2.30
2016,12,08,14,36,2.30
2016,12,08,14,37,2.30
2016,12,08,14,38,2.30
2016,12,08,14,39,2.30
2016,12,08,14,40,2.30
2016,12,08,14,41,2.30
2016,12,08,14,42,2.30
2016,12,08,14,43,2.30
2016,12,08,14,44,2.20
2016,12,08,14,45,2.20
2016,12,08,14,46,2.30
2016,12,08,14,47,2.30
2016,12,08,14,48,2.30
2016,12,08,14,49,2.30
2016,12,08,14,51,2.30
2016,12,08,14,52,2.30
2016,12,08,14,53,2.30
2016,12,08,14,54,2.30
2016,12,08,14,56,2.30
2016,12,08,14,57,2.30
2016,12,08,14,58,2.30
2016,12,08,14,59,2.30
2016,12,08,15,01,2.20
2016,12,08,15,02,2.20
2016,12,08,15,03,2.20
2016,12,08,15,04,2.20
2016,12,08,15,06,2.20
2016,12,08,15,07,2.20
2016,12,08,15,08,2.20
2016,12,08,15,09,2.20
2016,12,08,15,11,2.20
2016,12,08,15,12,2.20
2016,12,08,15,13,2.20
2016,12,08,15,14,2.20
2016,12,08,15,16,2.20
2016,12,08,15,17,2.20
2016,12,08,15,18,2.20
2016,12,08,15,19,2.20
2016,12,08,15,21,2.10
2016,12,08,15,22,2.10
2016,12,08,15,23,2.10
2016,12,08,15,24,2.10
2016,12,08,15,26,2.00
2016,12,08,15,27,2.00
2016,12,08,15,28,2.00
2016,12,08,15,29,2.10
2016,12,08,15,31,2.10
2016,12,08,15,32,2.10
2016,12,08,15,33,2.10
2016,12,08,15,34,2.10
2016,12,08,15,36,2.10
2016,12,08,15,37,2.10
2016,12,08,15,38,2.10
2016,12,08,15,39,2.00
2016,12,08,15,41,2.00
2016,12,08,15,42,2.00
2016,12,08,15,43,2.00
2016,12,08,15,44,2.00
2016,12,08,15,46,2.00
2016,12,08,15,47,2.00
2016,12,08,15,48,2.00
2016,12,08,15,49,2.00
2016,12,08,15,51,2.00
2016,12,08,15,52,2.00
2016,12,08,15,53,2.00
2016,12,08,15,54,2.00
2016,12,08,15,56,1.90
2016,12,08,15,57,1.90
2016,12,08,15,58,1.90
2016,12,08,15,59,1.90
2016,12,08,16,01,1.80
2016,12,08,16,02,1.80
2016,12,08,16,03,1.80
2016,12,08,16,04,1.90
2016,12,08,16,06,1.90
2016,12,08,16,07,1.90
2016,12,08,16,08,1.90
2016,12,08,16,09,1.90
2016,12,08,16,11,1.90
2016,12,08,16,12,1.90
2016,12,08,16,13,1.80
2016,12,08,16,14,1.90
2016,12,08,16,16,1.80
2016,12,08,16,17,1.80
2016,12,08,16,18,1.80
2016,12,08,16,19,1.80
2016,12,08,16,20,1.80
2016,12,08,16,21,1.80
2016,12,08,16,22,1.80
2016,12,08,16,23,1.80
2016,12,08,16,24,1.80
2016,12,08,16,25,1.80
2016,12,08,16,26,1.80
2016,12,08,16,27,1.80
2016,12,08,16,28,1.80
2016,12,08,16,29,1.80
2016,12,08,16,30,1.80
2016,12,08,16,31,1.80
2016,12,08,16,32,1.80
2016,12,08,16,33,1.80
2016,12,08,16,34,1.80
2016,12,08,16,36,1.80
2016,12,08,16,37,1.80
2016,12,08,16,38,1.80
2016,12,08,16,39,1.80
2016,12,08,16,40,1.80
2016,12,08,16,41,1.80
2016,12,08,16,42,1.80
2016,12,08,16,43,1.80
2016,12,08,16,44,1.80
2016,12,08,16,45,1.80
2016,12,08,16,46,1.80
2016,12,08,16,47,1.80
2016,12,08,16,48,1.80
2016,12,08,16,49,1.80
2016,12,08,16,50,1.80
2016,12,08,16,51,1.80
2016,12,08,16,52,1.80
2016,12,08,16,53,1.80
2016,12,08,16,54,1.80
2016,12,08,16,55,1.80
2016,12,08,16,56,1.80
2016,12,08,16,57,1.80
2016,12,08,16,58,1.80
2016,12,08,16,59,1.80
2016,12,08,17,00,1.80
2016,12,08,17,01,1.80
2016,12,08,17,02,1.80
2016,12,08,17,03,1.80
2016,12,08,17,04,1.80
2016,12,08,17,05,1.80
2016,12,08,17,06,1.80
2016,12,08,17,07,1.80
2016,12,08,17,08,1.80
2016,12,08,17,09,1.80
2016,12,08,17,10,1.80
2016,12,08,17,11,1.80
2016,12,08,17,12,1.80
2016,12,08,17,13,1.80
2016,12,08,17,14,1.80
2016,12,08,17,15,1.90
2016,12,08,17,16,1.90
2016,12,08,17,17,1.90
2016,12,08,17,18,1.90
2016,12,08,17,19,2.00
2016,12,08,17,20,2.00
2016,12,08,17,21,2.00
2016,12,08,17,23,2.00
2016,12,08,17,24,2.00
2016,12,08,17,26,2.00
2016,12,08,17,27,2.00
2016,12,08,17,28,2.10
2016,12,08,17,29,2.10
2016,12,08,17,31,2.10
2016,12,08,17,32,2.10
2016,12,08,17,33,2.10
2016,12,08,17,34,2.10
2016,12,08,17,36,2.10
2016,12,08,17,37,2.10
2016,12,08,17,38,2.20
2016,12,08,17,39,2.20
2016,12,08,17,41,2.20
2016,12,08,17,42,2.20
2016,12,08,17,43,2.20
2016,12,08,17,44,2.20
2016,12,08,17,46,2.20
2016,12,08,17,47,2.20
2016,12,08,17,48,2.20
2016,12,08,17,49,2.20
2016,12,08,17,51,2.20
2016,12,08,17,52,2.20
2016,12,08,17,53,2.20
2016,12,08,17,54,2.20
2016,12,08,17,56,2.20
2016,12,08,17,57,2.20
2016,12,08,17,58,2.20
2016,12,08,17,59,2.20
2016,12,08,18,01,2.20
2016,12,08,18,02,2.20
2016,12,08,18,03,2.20
2016,12,08,18,04,2.20
2016,12,08,18,06,2.20
2016,12,08,18,07,2.20
2016,12,08,18,08,2.20
2016,12,08,18,09,2.20
2016,12,08,18,11,2.20
2016,12,08,18,12,2.20
2016,12,08,18,13,2.20
2016,12,08,18,14,2.20
2016,12,08,18,16,2.20
2016,12,08,18,17,2.20
2016,12,08,18,18,2.20
2016,12,08,18,19,2.20
2016,12,08,18,21,2.10
2016,12,08,18,22,2.10
2016,12,08,18,23,2.10
2016,12,08,18,24,2.10
2016,12,08,18,26,2.10
2016,12,08,18,27,2.10
2016,12,08,18,28,2.10
2016,12,08,18,29,2.10
2016,12,08,18,31,2.10
2016,12,08,18,32,2.10
2016,12,08,18,33,2.10
2016,12,08,18,34,2.00
2016,12,08,18,36,2.00
2016,12,08,18,37,2.00
2016,12,08,18,38,2.00
2016,12,08,18,39,2.00
2016,12,08,18,41,1.90
2016,12,08,18,42,1.90
2016,12,08,18,43,1.90
2016,12,08,18,44,1.90
2016,12,08,18,45,1.90
2016,12,08,18,46,1.90
2016,12,08,18,47,1.90
2016,12,08,18,48,1.90
2016,12,08,18,49,1.90
2016,12,08,18,50,1.90
2016,12,08,18,51,1.90
2016,12,08,18,52,1.90
2016,12,08,18,53,1.90
2016,12,08,18,54,1.90
2016,12,08,18,55,2.00
2016,12,08,18,56,2.00
2016,12,08,18,57,2.00
2016,12,08,18,58,2.10
2016,12,08,18,59,2.10
2016,12,08,19,00,2.10
2016,12,08,19,01,2.10
2016,12,08,19,02,2.10
2016,12,08,19,03,2.20
2016,12,08,19,04,2.20
2016,12,08,19,06,2.20
2016,12,08,19,07,2.20
2016,12,08,19,08,2.20
2016,12,08,19,09,2.20
2016,12,08,19,10,2.20
2016,12,08,19,11,2.20
2016,12,08,19,12,2.20
2016,12,08,19,13,2.20
2016,12,08,19,14,2.20
2016,12,08,19,15,2.20
2016,12,08,19,16,2.20
2016,12,08,19,17,2.20
2016,12,08,19,18,2.20
2016,12,08,19,19,2.20
2016,12,08,19,20,2.20
2016,12,08,19,21,2.20
2016,12,08,19,22,2.20
2016,12,08,19,23,2.20
2016,12,08,19,24,2.20
2016,12,08,19,25,2.20
2016,12,08,19,26,2.20
2016,12,08,19,27,2.20
2016,12,08,19,28,2.20
2016,12,08,19,29,2.30
2016,12,08,19,30,2.30
2016,12,08,19,31,2.30
2016,12,08,19,32,2.30
2016,12,08,19,33,2.30
2016,12,08,19,34,2.30
2016,12,08,19,35,2.30
2016,12,08,19,36,2.30
2016,12,08,19,37,2.30
2016,12,08,19,38,2.30
2016,12,08,19,39,2.30
2016,12,08,19,40,2.30
2016,12,08,19,41,2.30
2016,12,08,19,42,2.20
2016,12,08,19,43,2.20
2016,12,08,19,44,2.20
2016,12,08,19,45,2.20
2016,12,08,19,46,2.20
2016,12,08,19,47,2.20
2016,12,08,19,48,2.20
2016,12,08,19,49,2.20
2016,12,08,19,50,2.20
2016,12,08,19,51,2.20
2016,12,08,19,52,2.20
2016,12,08,19,53,2.30
2016,12,08,19,54,2.30
2016,12,08,19,55,2.30
2016,12,08,19,56,2.30
2016,12,08,19,57,2.30
2016,12,08,19,58,2.30
2016,12,08,19,59,2.30
2016,12,08,20,00,2.30
2016,12,08,20,02,2.30
2016,12,08,20,03,2.30
2016,12,08,20,04,2.30
2016,12,08,20,06,2.30
2016,12,08,20,07,2.30
2016,12,08,20,08,2.30
2016,12,08,20,09,2.30
2016,12,08,20,11,2.40
2016,12,08,20,12,2.40
2016,12,08,20,13,2.40
2016,12,08,20,14,2.40
2016,12,08,20,16,2.50
2016,12,08,20,17,2.50
2016,12,08,20,18,2.50
2016,12,08,20,19,2.40
2016,12,08,20,21,2.40
2016,12,08,20,22,2.40
2016,12,08,20,23,2.30
2016,12,08,20,24,2.30
2016,12,08,20,26,2.30
2016,12,08,20,27,2.30
2016,12,08,20,28,2.30
2016,12,08,20,29,2.30
2016,12,08,20,31,2.30
2016,12,08,20,32,2.30
2016,12,08,20,33,2.30
2016,12,08,20,34,2.30
2016,12,08,20,36,2.30
2016,12,08,20,37,2.40
2016,12,08,20,38,2.40
2016,12,08,20,39,2.40
2016,12,08,20,41,2.50
2016,12,08,20,42,2.50
2016,12,08,20,43,2.50
2016,12,08,20,44,2.50
2016,12,08,20,46,2.50
2016,12,08,20,47,2.50
2016,12,08,20,48,2.50
2016,12,08,20,49,2.50
2016,12,08,20,51,2.50
2016,12,08,20,52,2.50
2016,12,08,20,53,2.50
2016,12,08,20,54,2.50
2016,12,08,20,56,2.50
2016,12,08,20,57,2.50
2016,12,08,20,58,2.50
2016,12,08,20,59,2.50
2016,12,08,21,01,2.50
2016,12,08,21,02,2.50
2016,12,08,21,03,2.50
2016,12,08,21,04,2.50
2016,12,08,21,06,2.50
2016,12,08,21,07,2.60
2016,12,08,21,08,2.60
2016,12,08,21,09,2.60
2016,12,08,21,11,2.60
2016,12,08,21,12,2.60
2016,12,08,21,13,2.60
2016,12,08,21,14,2.60
2016,12,08,21,15,2.60
2016,12,08,21,16,2.60
2016,12,08,21,17,2.60
2016,12,08,21,18,2.60
2016,12,08,21,19,2.60
2016,12,08,21,21,2.60
2016,12,08,21,22,2.60
2016,12,08,21,23,2.60
2016,12,08,21,24,2.60
2016,12,08,21,25,2.60